�������l�o���
Date,Time,MP-1(��Sv/h),MP-2(��Sv/h),MP-3(��Sv/h),MP-4(��Sv/h),MP-5(��Sv/h),MP-6(��Sv/h),MP-7(��Sv/h),MP-8(��Sv/h),����,����(m/s),���J
2019/04/02,00:00,0.761,1.118,0.770,1.425,1.035,0.435,0.775,0.733,�k�k��,3.7,��
2019/04/02,00:10,0.762,1.119,0.772,1.426,1.037,0.434,0.775,0.733,�k��,3.5,��
2019/04/02,00:20,0.760,1.118,0.771,1.426,1.033,0.435,0.775,0.735,�k��,4.1,��
2019/04/02,00:30,0.760,1.119,0.774,1.424,1.035,0.435,0.775,0.732,�k��,4.2,��
2019/04/02,00:40,0.761,1.117,0.773,1.424,1.036,0.436,0.774,0.735,�k��,3.8,��
2019/04/02,00:50,0.759,1.119,0.772,1.426,1.034,0.435,0.773,0.734,�k�k��,4.4,��
2019/04/02,01:00,0.761,1.119,0.773,1.428,1.035,0.434,0.775,0.736,�k�k��,4.6,��
2019/04/02,01:10,0.760,1.118,0.771,1.424,1.036,0.435,0.775,0.735,�k�k��,4.7,��
2019/04/02,01:20,0.763,1.120,0.772,1.424,1.034,0.434,0.775,0.735,�k�k��,5.4,��
2019/04/02,01:30,0.760,1.117,0.771,1.426,1.037,0.435,0.774,0.737,�k��,5.3,��
2019/04/02,01:40,0.761,1.118,0.771,1.427,1.035,0.434,0.776,0.735,�k��,4.7,��
2019/04/02,01:50,0.759,1.117,0.773,1.426,1.033,0.437,0.775,0.736,�k�k��,4.5,��
2019/04/02,02:00,0.761,1.119,0.772,1.425,1.035,0.435,0.774,0.737,�k��,3.5,��
2019/04/02,02:10,0.761,1.118,0.771,1.423,1.035,0.436,0.775,0.736,�k�k��,3.5,��
2019/04/02,02:20,0.760,1.119,0.772,1.425,1.034,0.434,0.773,0.734,�k��,3.4,��
2019/04/02,02:30,0.761,1.118,0.771,1.424,1.034,0.435,0.774,0.735,�k��,3.4,��
2019/04/02,02:40,0.760,1.116,0.771,1.422,1.031,0.434,0.775,0.733,�k��,4.7,��
2019/04/02,02:50,0.759,1.118,0.771,1.423,1.034,0.435,0.773,0.734,�k��,5.3,��
2019/04/02,03:00,0.760,1.118,0.769,1.423,1.033,0.434,0.774,0.734,���k��,4.1,��
2019/04/02,03:10,0.759,1.117,0.770,1.424,1.034,0.434,0.773,0.734,���k��,5.0,��
2019/04/02,03:20,0.759,1.119,0.770,1.425,1.033,0.434,0.774,0.736,���k��,4.7,��
2019/04/02,03:30,0.759,1.120,0.774,1.424,1.034,0.435,0.773,0.735,���k��,4.4,��
2019/04/02,03:40,0.760,1.117,0.770,1.422,1.032,0.434,0.776,0.734,�k��,4.5,��
2019/04/02,03:50,0.761,1.119,0.772,1.426,1.033,0.434,0.774,0.733,�k��,8.6,��
2019/04/02,04:00,0.759,1.116,0.770,1.426,1.034,0.436,0.774,0.734,�k��,10.7,��
2019/04/02,04:10,0.760,1.118,0.772,1.423,1.033,0.434,0.774,0.734,�k��,8.9,��
2019/04/02,04:20,0.760,1.120,0.773,1.425,1.035,0.434,0.774,0.734,�k��,7.3,��
2019/04/02,04:30,0.760,1.119,0.770,1.426,1.034,0.434,0.774,0.735,�k��,7.7,��
2019/04/02,04:40,0.762,1.117,0.773,1.423,1.032,0.433,0.775,0.735,�k��,7.5,��
2019/04/02,04:50,0.760,1.119,0.772,1.424,1.035,0.434,0.773,0.736,�k��,7.8,��
2019/04/02,05:00,0.762,1.118,0.772,1.427,1.034,0.434,0.773,0.735,�k��,7.5,��
2019/04/02,05:10,0.758,1.118,0.771,1.426,1.035,0.435,0.773,0.736,�k��,6.7,��
2019/04/02,05:20,0.760,1.117,0.771,1.424,1.035,0.435,0.773,0.736,�k��,6.2,��
2019/04/02,05:30,0.759,1.118,0.773,1.425,1.033,0.435,0.773,0.732,�k��,4.1,��
2019/04/02,05:40,0.761,1.119,0.771,1.424,1.032,0.434,0.774,0.733,���k��,4.2,��
2019/04/02,05:50,0.759,1.117,0.771,1.425,1.033,0.435,0.774,0.735,���k��,3.9,��
2019/04/02,06:00,0.761,1.117,0.772,1.425,1.033,0.433,0.773,0.734,���k��,2.9,��
2019/04/02,06:10,0.759,1.116,0.771,1.422,1.033,0.434,0.774,0.734,���k��,3.0,��
2019/04/02,06:20,0.760,1.120,0.771,1.424,1.033,0.437,0.774,0.733,���k��,2.9,��
2019/04/02,06:30,0.760,1.118,0.772,1.424,1.033,0.436,0.773,0.733,���k��,4.1,��
2019/04/02,06:40,0.760,1.119,0.771,1.427,1.031,0.434,0.773,0.736,���k��,3.1,��
2019/04/02,06:50,0.760,1.119,0.771,1.428,1.034,0.434,0.774,0.733,��,2.0,��
2019/04/02,07:00,0.760,1.116,0.772,1.429,1.033,0.435,0.775,0.735,���k��,2.0,��
2019/04/02,07:10,0.762,1.120,0.769,1.425,1.034,0.436,0.775,0.735,��,1.7,��
2019/04/02,07:20,0.762,1.119,0.774,1.426,1.035,0.435,0.774,0.734,���k��,1.7,��
2019/04/02,07:30,0.760,1.118,0.771,1.425,1.033,0.436,0.776,0.734,�쐼,1.2,��
2019/04/02,07:40,0.760,1.121,0.771,1.426,1.032,0.435,0.775,0.736,�쐼,2.3,��
2019/04/02,07:50,0.762,1.120,0.772,1.425,1.033,0.434,0.774,0.735,��쐼,2.8,��
2019/04/02,08:00,0.761,1.120,0.773,1.426,1.032,0.436,0.775,0.735,�쐼,2.0,��
2019/04/02,08:10,0.762,1.119,0.773,1.426,1.034,0.436,0.775,0.735,���쐼,5.3,��
2019/04/02,08:20,0.761,1.119,0.772,1.425,1.034,0.434,0.776,0.735,��,3.6,��
2019/04/02,08:30,0.762,1.121,0.772,1.428,1.036,0.435,0.776,0.736,���k��,4.1,��
2019/04/02,08:40,0.764,1.120,0.770,1.427,1.035,0.432,0.776,0.736,���k��,7.7,��
2019/04/02,08:50,0.763,1.120,0.772,1.426,1.037,0.431,0.776,0.735,��,7.3,��
2019/04/02,09:00,0.762,1.122,0.773,1.427,1.037,0.433,0.774,0.735,��,5.7,��
2019/04/02,09:10,0.763,1.119,0.773,1.426,1.038,0.436,0.774,0.738,��,4.7,��
2019/04/02,09:20,0.765,1.119,0.772,1.430,1.040,0.432,0.774,0.736,���k��,6.1,��
2019/04/02,09:30,0.763,1.119,0.774,1.427,1.038,0.435,0.773,0.732,���k��,4.9,��
2019/04/02,09:40,0.764,1.122,0.775,1.428,1.037,0.435,0.773,0.734,���k��,5.1,��
2019/04/02,09:50,0.763,1.119,0.774,1.430,1.040,0.432,0.773,0.734,�쐼,2.2,��
2019/04/02,10:00,0.766,1.120,0.773,1.430,1.041,0.432,0.775,0.734,�k�k��,4.9,��
2019/04/02,10:10,0.766,1.120,0.774,1.430,1.040,0.434,0.773,0.734,�k�k��,4.9,��
2019/04/02,10:20,0.766,1.119,0.774,1.427,1.040,0.437,0.775,0.735,�k��,5.6,��
2019/04/02,10:30,0.764,1.118,0.772,1.430,1.038,0.438,0.774,0.734,�k��,5.6,��
2019/04/02,10:40,0.765,1.119,0.768,1.430,1.037,0.438,0.775,0.735,�k�k��,5.5,��
2019/04/02,10:50,0.765,1.121,0.774,1.432,1.039,0.436,0.775,0.735,�k��,3.8,��
2019/04/02,11:00,0.765,1.119,0.774,1.431,1.038,0.436,0.775,0.735,�k��,3.0,�L
2019/04/02,11:10,0.767,1.119,0.773,1.431,1.037,0.435,0.775,0.736,�k�k��,2.8,�L
2019/04/02,11:20,0.766,1.123,0.773,1.430,1.038,0.435,0.777,0.736,�k��,3.6,�L
2019/04/02,11:30,0.766,1.121,0.773,1.433,1.040,0.436,0.775,0.737,�k��,3.9,�L
2019/04/02,11:40,0.764,1.120,0.776,1.432,1.042,0.436,0.775,0.737,���k��,2.9,��
2019/04/02,11:50,0.766,1.122,0.775,1.429,1.039,0.437,0.777,0.738,���k��,2.3,��
2019/04/02,12:00,0.765,1.124,0.775,1.432,1.041,0.437,0.778,0.738,�k��,2.3,��
2019/04/02,12:10,0.765,1.126,0.775,1.434,1.041,0.437,0.776,0.737,�k,2.3,��
2019/04/02,12:20,0.768,1.126,0.774,1.433,1.040,0.437,0.774,0.739,���쐼,3.3,��
2019/04/02,12:30,0.765,1.122,0.775,1.432,1.039,0.436,0.774,0.737,��,6.4,��
2019/04/02,12:40,0.764,1.125,0.776,1.432,1.039,0.437,0.776,0.738,���쐼,7.3,��
2019/04/02,12:50,0.766,1.124,0.775,1.430,1.042,0.436,0.775,0.738,��,7.9,��
2019/04/02,13:00,0.766,1.125,0.774,1.430,1.038,0.436,0.773,0.736,�k�k��,11.3,�L
2019/04/02,13:10,0.765,1.125,0.776,1.428,1.039,0.436,0.773,0.737,�k�k��,10.4,�L
2019/04/02,13:20,0.763,1.122,0.776,1.429,1.040,0.435,0.772,0.736,�k�k��,8.3,�L
2019/04/02,13:30,0.767,1.120,0.775,1.433,1.040,0.436,0.773,0.737,�k��,7.4,�L
2019/04/02,13:40,0.768,1.122,0.776,1.432,1.043,0.438,0.774,0.738,�k��,8.6,�L
2019/04/02,13:50,0.766,1.123,0.776,1.431,1.041,0.436,0.774,0.737,�k��,8.0,�L
2019/04/02,14:00,0.764,1.125,0.774,1.431,1.041,0.437,0.775,0.736,�k��,9.3,�L
2019/04/02,14:10,0.765,1.119,0.774,1.431,1.040,0.434,0.775,0.736,�k��,9.6,�L
2019/04/02,14:20,0.763,1.123,0.775,1.433,1.040,0.436,0.772,0.737,�k��,7.6,�L
2019/04/02,14:30,0.765,1.123,0.774,1.432,1.041,0.435,0.775,0.737,���k��,8.6,�L
2019/04/02,14:40,0.767,1.124,0.775,1.430,1.041,0.436,0.776,0.736,���k��,9.0,�L
2019/04/02,14:50,0.765,1.123,0.776,1.433,1.041,0.437,0.774,0.737,���k��,8.5,�L
2019/04/02,15:00,0.767,1.127,0.775,1.432,1.040,0.435,0.775,0.738,���k��,9.0,�L
2019/04/02,15:10,0.766,1.128,0.776,1.434,1.041,0.436,0.775,0.738,���k��,6.0,�L
2019/04/02,15:20,0.765,1.126,0.776,1.433,1.041,0.436,0.774,0.734,�k��,5.5,�L
2019/04/02,15:30,0.764,1.126,0.775,1.433,1.038,0.437,0.775,0.737,���k��,7.2,�L
2019/04/02,15:40,0.764,1.126,0.776,1.433,1.040,0.437,0.774,0.736,��,8.7,�L
2019/04/02,15:50,0.764,1.125,0.777,1.434,1.040,0.435,0.774,0.736,���k��,9.2,��
2019/04/02,16:00,0.764,1.127,0.776,1.433,1.042,0.437,0.778,0.737,���k��,9.2,��
2019/04/02,16:10,0.764,1.128,0.777,1.433,1.041,0.435,0.777,0.737,���k��,9.6,��
2019/04/02,16:20,0.765,1.129,0.775,1.432,1.042,0.438,0.776,0.738,���k��,10.4,��
2019/04/02,16:30,0.766,1.128,0.775,1.435,1.041,0.437,0.775,0.735,���k��,10.3,��
2019/04/02,16:40,0.765,1.128,0.776,1.434,1.040,0.437,0.776,0.738,���k��,10.0,��
2019/04/02,16:50,0.765,1.129,0.775,1.433,1.038,0.436,0.776,0.737,���k��,8.5,��
2019/04/02,17:00,0.765,1.127,0.775,1.434,1.041,0.434,0.777,0.736,�k��,9.2,��
2019/04/02,17:10,0.764,1.129,0.773,1.433,1.041,0.437,0.776,0.736,�k��,8.4,��
2019/04/02,17:20,0.766,1.126,0.775,1.432,1.041,0.438,0.778,0.736,�k��,8.1,��
2019/04/02,17:30,0.765,1.127,0.775,1.434,1.042,0.436,0.778,0.736,���k��,7.5,��
2019/04/02,17:40,0.765,1.127,0.776,1.435,1.039,0.437,0.778,0.737,�k��,7.1,��
2019/04/02,17:50,0.766,1.126,0.776,1.434,1.041,0.437,0.777,0.736,�k��,7.2,��
2019/04/02,18:00,0.764,1.127,0.777,1.434,1.039,0.435,0.777,0.737,�k��,8.8,��
2019/04/02,18:10,0.763,1.127,0.774,1.435,1.040,0.436,0.777,0.737,�k��,6.8,��
2019/04/02,18:20,0.763,1.126,0.775,1.434,1.039,0.437,0.776,0.737,�k��,6.4,��
2019/04/02,18:30,0.763,1.129,0.774,1.432,1.039,0.436,0.777,0.737,�k��,5.0,��
2019/04/02,18:40,0.764,1.124,0.774,1.432,1.040,0.436,0.775,0.736,�k��,5.3,��
2019/04/02,18:50,0.765,1.127,0.776,1.432,1.038,0.434,0.776,0.736,���k��,5.6,��
2019/04/02,19:00,0.764,1.127,0.774,1.433,1.039,0.437,0.775,0.736,���k��,4.6,��
2019/04/02,19:10,0.764,1.127,0.775,1.433,1.040,0.437,0.777,0.735,��,3.6,��
2019/04/02,19:20,0.764,1.124,0.773,1.432,1.037,0.436,0.776,0.737,���쐼,3.3,��
2019/04/02,19:30,0.762,1.129,0.774,1.436,1.039,0.435,0.776,0.736,��,4.7,��
2019/04/02,19:40,0.763,1.129,0.776,1.434,1.039,0.436,0.775,0.736,��,5.9,��
2019/04/02,19:50,0.763,1.125,0.774,1.433,1.040,0.436,0.774,0.735,��,5.6,��
2019/04/02,20:00,0.763,1.127,0.774,1.432,1.039,0.435,0.776,0.734,��,5.3,��
2019/04/02,20:10,0.761,1.125,0.776,1.433,1.038,0.436,0.776,0.735,���k��,6.8,��
2019/04/02,20:20,0.764,1.125,0.775,1.432,1.038,0.436,0.775,0.736,���k��,6.5,��
2019/04/02,20:30,0.763,1.126,0.776,1.433,1.038,0.436,0.775,0.736,��,4.8,��
2019/04/02,20:40,0.761,1.124,0.774,1.432,1.039,0.435,0.774,0.736,��,5.3,��
2019/04/02,20:50,0.763,1.125,0.775,1.434,1.040,0.436,0.775,0.736,��,4.7,��
2019/04/02,21:00,0.762,1.126,0.775,1.432,1.040,0.436,0.775,0.736,��,5.4,��
2019/04/02,21:10,0.764,1.125,0.776,1.435,1.038,0.435,0.775,0.734,���k��,6.0,��
2019/04/02,21:20,0.763,1.124,0.772,1.431,1.037,0.434,0.774,0.736,���k��,6.2,��
2019/04/02,21:30,0.762,1.125,0.774,1.433,1.040,0.435,0.774,0.736,���k��,6.5,��
2019/04/02,21:40,0.764,1.124,0.774,1.430,1.038,0.436,0.775,0.734,���k��,8.1,��
2019/04/02,21:50,0.762,1.125,0.773,1.433,1.038,0.435,0.774,0.736,���k��,7.1,��
2019/04/02,22:00,0.761,1.122,0.775,1.432,1.039,0.436,0.774,0.735,���k��,7.7,��
2019/04/02,22:10,0.763,1.123,0.774,1.432,1.039,0.434,0.774,0.737,���k��,8.0,��
2019/04/02,22:20,0.761,1.124,0.772,1.434,1.037,0.436,0.774,0.734,���k��,7.0,��
2019/04/02,22:30,0.762,1.123,0.773,1.432,1.039,0.435,0.775,0.734,��,5.9,��
2019/04/02,22:40,0.762,1.125,0.774,1.433,1.040,0.435,0.774,0.735,��,5.7,��
2019/04/02,22:50,0.764,1.123,0.773,1.433,1.037,0.435,0.774,0.736,���k��,6.0,��
2019/04/02,23:00,0.763,1.123,0.773,1.433,1.036,0.435,0.772,0.736,���k��,6.3,��
2019/04/02,23:10,0.763,1.122,0.773,1.433,1.038,0.434,0.775,0.734,���k��,5.5,��
2019/04/02,23:20,0.762,1.123,0.775,1.434,1.038,0.436,0.775,0.736,���k��,6.8,��
2019/04/02,23:30,0.762,1.124,0.774,1.435,1.036,0.433,0.775,0.736,���k��,6.5,��
2019/04/02,23:40,0.762,1.124,0.773,1.432,1.038,0.437,0.773,0.735,���k��,6.0,��
2019/04/02,23:50,0.763,1.124,0.773,1.433,1.037,0.435,0.776,0.735,���k��,6.4,��
